SCP
-0 -0 0 0 -0 0 0 0 0 0 0 0 0 0 0 0 0 0 0 0 0 0 0 0 0 0 0 0 -0 -0 -0 -0 0
-0 0 0 0 0 0 0 0 0 0 0 0 0 0 0 0 0 0 0 0 -0 -0 0 0 0 0 0 0 0 -0 -0 -0 -0
0 0 0 0 0 0 0 0 0 0 0 0 0 0 0 0 0 0 0 0 -0 -0 -0 -0 -0 0 0 0 0 0 -0 -0 -0
0 0 0 0 -0 -0 0 0 0 0 0 0 0 0 0 0 0 0 0 0 0 0 -0 -0 0 0 0 0 0 0 -0 -0 -0
0 0 0 0 0 0 0 0 0 0 0 0 0 0 0 0 0 0 0 0 0 0 0 -0 0 0 0 0 0 0 0 0 0
0 0 0 0 0 0 0 0 0 0 0 0 0 0 0 0 0 0 0 0 0 -0 0 0 0 0 0 0 0 0 0 0 0
0 0 0 0 0 0 0 0 0 0 0 0 0 0 0 0 0 0 0 0 0 0 0 0 0 0 0 0 0 0 0 0 0
0 0 0 0 0 0 0 0 0 0 0 -0 -0 0 0 0 0 0 0 0 0 0 0 0 0 0 0 0 0 0 0 0 0
0 0 0 0 0 0 0 0 0 0 0 0 0 0 -0 -0 0 0 -0 0 0 0 0 0 0 0 0 0 0 0 0 0 0
0 0 0 0 0 0 0 0 0 0 0 0 0 0 0 0 -0 -0 0 -0 0 0 0 0 0 0 0 0 0 0 0 0 0
0 0 0 0 0 0 0 0 0 0 0 0 0 0 0 0 0 0 0 0 -0 0 -0 -0 0 0 0 0 0 0 0 0 0
0 0 0 0 0 0 0 0 0 0 0 0 0 0 0 0 0 0 0 0 0 0 0 0 0 0 0 0 0 0 0 0 0
0 0 0 0 0 0 0 0 0 0 0 0 0 0 0 0 0 0 0 0 0 0 0 0 0 0 0 0 0 0 0 0 0
0 0 0 0 0 0 0 0 0 0 0 0 0 0 0 0 0 0 0 0 0 0 0 0 0 0 0 0 0 0 0 0 0
0 0 0 0 0 0 0 0 0 0 0 0 0 0 0 0 0 0 0 0 0 0 0 0 0 0 0 0 0 0 0 0 0
0 0 0 0 0 0 0 0 0 0 0 0 0 0 0 0 0 0 0 0 0 0 0 0 0 0 0 0 0 0 0 0 0
0 0 0 0 0 0 0 0 0 0 0 0 0 0 0 0 0 0 0 0 0 0 0 0 0 0 0 0 0 0 0 0 0
0 0 0 0 0 0 0 0 0 0 0 0 0 0 0 0 0 0 0 0 0 0 0 0 0 0 0 0 0 0 0 0 0
0 0 0 0 0 0 0 0 0 0 0 0 0 0 0 0 0 0 0 0 0 0 0 0 0 0 0 0 0 0 0 0 0
0 0 0 0 0 0 0 0 0 0 0 0 0 0 0 0 0 0 0 0 0 0 0 0 0 0 0 0 0 0 0 0 0
Wind_Speed_500mb
56 67 70 74 70 83 78 70 61 51 48 40 43 44 50 44 34 28 25 25 24 27 26 24 26 25 23 21 23 29 29 31 30
50 62 68 74 71 62 63 73 70 64 56 45 36 45 48 42 35 30 25 20 24 25 21 24 28 25 20 20 26 31 28 32 33
41 53 60 63 56 75 68 70 69 66 57 45 38 43 50 47 37 30 27 23 22 28 26 26 24 24 21 23 23 33 31 31 33
42 42 48 55 56 64 61 64 67 60 53 47 46 44 45 53 45 38 32 33 24 26 28 28 23 25 25 25 26 29 31 31 31
43 44 43 45 58 58 60 58 36 45 39 43 43 43 42 47 52 46 41 35 31 32 35 33 29 27 26 25 28 28 30 25 26
43 36 34 39 41 52 51 59 52 42 35 38 39 21 25 37 43 43 39 42 44 41 39 36 32 30 29 25 26 26 26 24 22
45 43 40 35 34 34 33 43 33 31 31 27 33 37 20 20 32 42 41 41 47 43 41 42 37 33 31 31 31 27 31 28 28
50 41 37 39 39 31 28 29 27 25 21 28 32 36 11 25 49 34 28 29 44 53 52 47 47 43 38 38 37 39 37 40 37
53 46 46 41 34 34 38 32 22 14 8 14 20 30 30 31 16 41 46 36 45 31 49 45 44 52 52 46 44 42 41 43 45
56 50 47 39 37 38 40 38 37 35 33 31 39 48 39 31 31 23 23 40 36 37 37 34 36 42 47 52 50 47 45 44 47
64 57 48 38 33 35 31 30 30 30 30 32 33 33 30 27 29 31 34 25 21 41 41 48 32 36 40 44 48 49 51 52 54
55 53 48 41 30 26 24 22 21 20 22 25 24 26 21 20 17 17 17 17 19 28 32 42 45 43 40 41 40 45 49 52 57
48 44 37 38 33 21 15 13 8 5 8 11 13 14 13 12 14 13 14 13 9 6 9 12 18 22 34 38 31 34 45 52 59
45 41 38 30 24 18 15 11 8 8 9 9 6 4 4 5 6 8 7 6 5 6 8 7 4 0 5 11 17 20 32 36 38
50 45 36 26 20 16 10 8 11 13 15 17 21 20 19 18 16 15 14 12 9 9 9 10 10 9 6 2 5 9 8 13 20
44 34 28 21 14 10 10 11 12 12 9 11 12 15 20 22 23 22 19 17 17 19 17 15 15 17 17 16 15 16 18 18 20
43 31 21 13 12 14 16 15 13 13 13 13 12 10 10 14 19 21 22 21 20 21 21 20 20 22 25 24 25 27 27 28 32
37 31 24 15 13 16 17 15 12 11 10 8 8 7 8 8 9 11 14 19 22 21 21 23 23 23 26 30 34 33 31 35 40
29 22 15 13 12 12 14 13 13 9 6 6 5 4 4 6 6 8 10 12 11 17 23 26 29 33 36 35 39 43 45 46 46
25 18 14 14 14 13 15 15 13 12 7 5 3 1 2 7 10 13 15 17 18 17 10 16 25 35 43 53 61 66 67 64 65
Wind_Direction_500mb
171 177 181 185 208 206 203 204 206 209 214 216 216 218 218 222 223 226 237 225 232 222 230 230 225 220 209 213 212 217 224 218 226
150 163 169 179 201 200 206 209 210 213 216 219 223 224 224 226 228 230 227 222 216 221 234 229 225 224 225 223 218 212 229 224 229
145 156 160 173 191 208 216 212 212 214 216 223 237 231 229 230 234 237 235 228 234 226 219 217 218 231 240 242 243 229 226 230 230
137 149 171 180 191 202 211 213 213 211 211 214 225 233 236 234 237 236 238 236 234 227 227 232 239 246 252 258 257 246 236 236 239
141 148 147 161 173 178 184 189 179 212 224 227 224 231 239 239 238 242 244 247 244 246 246 245 242 245 253 258 254 251 243 240 240
136 147 152 162 176 170 176 189 206 237 218 225 221 202 235 238 240 241 249 251 251 251 257 262 255 254 260 263 252 253 248 239 243
110 130 145 150 161 174 190 195 188 182 208 208 224 203 212 234 238 238 244 250 254 253 255 256 261 257 255 259 257 260 253 251 249
119 116 121 125 138 151 154 168 192 212 223 258 247 231 253 267 245 228 247 265 252 250 250 252 256 262 261 260 262 261 264 255 259
118 123 120 112 116 124 129 144 155 161 196 198 197 193 200 244 203 247 270 255 250 258 244 249 253 254 258 262 260 261 263 260 261
125 123 115 122 118 106 109 115 122 123 124 145 173 200 209 218 222 207 266 281 251 253 257 244 253 259 258 258 258 258 260 259 262
135 129 124 119 114 116 118 111 113 114 117 117 123 138 159 154 188 219 227 236 243 249 242 249 267 269 255 255 259 260 260 261 262
134 135 138 136 136 128 127 124 114 117 112 110 114 114 118 123 130 143 155 191 213 234 236 247 259 259 259 260 258 259 257 258 261
142 146 145 143 143 140 151 148 149 146 126 124 124 120 120 126 138 147 150 155 171 212 242 250 261 267 257 273 279 279 268 261 261
153 153 152 158 158 170 186 201 230 255 260 268 282 252 229 225 222 219 204 184 193 168 143 138 112 188 290 302 317 308 292 268 278
161 157 158 169 182 185 200 235 252 262 265 263 265 265 261 260 256 254 248 236 241 247 224 210 185 178 185 299 338 352 335 285 284
163 165 169 180 208 205 224 258 286 296 297 291 287 265 258 255 254 256 256 250 245 244 247 248 251 250 252 256 274 280 282 289 293
168 177 189 205 240 243 242 244 248 267 284 288 291 294 278 263 261 256 255 258 258 259 258 254 259 267 271 276 278 279 276 277 284
172 173 178 188 215 226 234 237 238 230 241 258 263 266 274 277 271 270 266 267 264 266 274 276 276 280 287 285 282 290 302 297 289
172 170 183 206 215 214 206 199 203 208 203 203 227 252 272 288 302 307 297 282 266 279 271 272 273 278 281 280 283 283 284 286 287
189 196 219 231 223 209 205 200 188 175 170 141 134 138 330 328 329 329 325 321 313 295 271 273 270 270 270 274 277 276 278 280 282
Wind_Speed_850mb
56 67 70 74 70 83 78 70 61 51 48 40 43 44 50 44 34 28 25 25 24 27 26 24 26 25 23 21 23 29 29 31 30
50 62 68 74 71 62 63 73 70 64 56 45 36 45 48 42 35 30 25 20 24 25 21 24 28 25 20 20 26 31 28 32 33
41 53 60 63 56 75 68 70 69 66 57 45 38 43 50 47 37 30 27 23 22 28 26 26 24 24 21 23 23 33 31 31 33
42 42 48 55 56 64 61 64 67 60 53 47 46 44 45 53 45 38 32 33 24 26 28 28 23 25 25 25 26 29 31 31 31
43 44 43 45 58 58 60 58 36 45 39 43 43 43 42 47 52 46 41 35 31 32 35 33 29 27 26 25 28 28 30 25 26
43 36 34 39 41 52 51 59 52 42 35 38 39 21 25 37 43 43 39 42 44 41 39 36 32 30 29 25 26 26 26 24 22
45 43 40 35 34 34 33 43 33 31 31 27 33 37 20 20 32 42 41 41 47 43 41 42 37 33 31 31 31 27 31 28 28
50 41 37 39 39 31 28 29 27 25 21 28 32 36 11 25 49 34 28 29 44 53 52 47 47 43 38 38 37 39 37 40 37
53 46 46 41 34 34 38 32 22 14 8 14 20 30 30 31 16 41 46 36 45 31 49 45 44 52 52 46 44 42 41 43 45
56 50 47 39 37 38 40 38 37 35 33 31 39 48 39 31 31 23 23 40 36 37 37 34 36 42 47 52 50 47 45 44 47
64 57 48 38 33 35 31 30 30 30 30 32 33 33 30 27 29 31 34 25 21 41 41 48 32 36 40 44 48 49 51 52 54
55 53 48 41 30 26 24 22 21 20 22 25 24 26 21 20 17 17 17 17 19 28 32 42 45 43 40 41 40 45 49 52 57
48 44 37 38 33 21 15 13 8 5 8 11 13 14 13 12 14 13 14 13 9 6 9 12 18 22 34 38 31 34 45 52 59
45 41 38 30 24 18 15 11 8 8 9 9 6 4 4 5 6 8 7 6 5 6 8 7 4 0 5 11 17 20 32 36 38
50 45 36 26 20 16 10 8 11 13 15 17 21 20 19 18 16 15 14 12 9 9 9 10 10 9 6 2 5 9 8 13 20
44 34 28 21 14 10 10 11 12 12 9 11 12 15 20 22 23 22 19 17 17 19 17 15 15 17 17 16 15 16 18 18 20
43 31 21 13 12 14 16 15 13 13 13 13 12 10 10 14 19 21 22 21 20 21 21 20 20 22 25 24 25 27 27 28 32
37 31 24 15 13 16 17 15 12 11 10 8 8 7 8 8 9 11 14 19 22 21 21 23 23 23 26 30 34 33 31 35 40
29 22 15 13 12 12 14 13 13 9 6 6 5 4 4 6 6 8 10 12 11 17 23 26 29 33 36 35 39 43 45 46 46
25 18 14 14 14 13 15 15 13 12 7 5 3 1 2 7 10 13 15 17 18 17 10 16 25 35 43 53 61 66 67 64 65
Wind_Direction_850mb
171 177 181 185 208 206 203 204 206 209 214 216 216 218 218 222 223 226 237 225 232 222 230 230 225 220 209 213 212 217 224 218 226
150 163 169 179 201 200 206 209 210 213 216 219 223 224 224 226 228 230 227 222 216 221 234 229 225 224 225 223 218 212 229 224 229
145 156 160 173 191 208 216 212 212 214 216 223 237 231 229 230 234 237 235 228 234 226 219 217 218 231 240 242 243 229 226 230 230
137 149 171 180 191 202 211 213 213 211 211 214 225 233 236 234 237 236 238 236 234 227 227 232 239 246 252 258 257 246 236 236 239
141 148 147 161 173 178 184 189 179 212 224 227 224 231 239 239 238 242 244 247 244 246 246 245 242 245 253 258 254 251 243 240 240
136 147 152 162 176 170 176 189 206 237 218 225 221 202 235 238 240 241 249 251 251 251 257 262 255 254 260 263 252 253 248 239 243
110 130 145 150 161 174 190 195 188 182 208 208 224 203 212 234 238 238 244 250 254 253 255 256 261 257 255 259 257 260 253 251 249
119 116 121 125 138 151 154 168 192 212 223 258 247 231 253 267 245 228 247 265 252 250 250 252 256 262 261 260 262 261 264 255 259
118 123 120 112 116 124 129 144 155 161 196 198 197 193 200 244 203 247 270 255 250 258 244 249 253 254 258 262 260 261 263 260 261
125 123 115 122 118 106 109 115 122 123 124 145 173 200 209 218 222 207 266 281 251 253 257 244 253 259 258 258 258 258 260 259 262
135 129 124 119 114 116 118 111 113 114 117 117 123 138 159 154 188 219 227 236 243 249 242 249 267 269 255 255 259 260 260 261 262
134 135 138 136 136 128 127 124 114 117 112 110 114 114 118 123 130 143 155 191 213 234 236 247 259 259 259 260 258 259 257 258 261
142 146 145 143 143 140 151 148 149 146 126 124 124 120 120 126 138 147 150 155 171 212 242 250 261 267 257 273 279 279 268 261 261
153 153 152 158 158 170 186 201 230 255 260 268 282 252 229 225 222 219 204 184 193 168 143 138 112 188 290 302 317 308 292 268 278
161 157 158 169 182 185 200 235 252 262 265 263 265 265 261 260 256 254 248 236 241 247 224 210 185 178 185 299 338 352 335 285 284
163 165 169 180 208 205 224 258 286 296 297 291 287 265 258 255 254 256 256 250 245 244 247 248 251 250 252 256 274 280 282 289 293
168 177 189 205 240 243 242 244 248 267 284 288 291 294 278 263 261 256 255 258 258 259 258 254 259 267 271 276 278 279 276 277 284
172 173 178 188 215 226 234 237 238 230 241 258 263 266 274 277 271 270 266 267 264 266 274 276 276 280 287 285 282 290 302 297 289
172 170 183 206 215 214 206 199 203 208 203 203 227 252 272 288 302 307 297 282 266 279 271 272 273 278 281 280 283 283 284 286 287
189 196 219 231 223 209 205 200 188 175 170 141 134 138 330 328 329 329 325 321 313 295 271 273 270 270 270 274 277 276 278 280 282